Station Historical Data
Daily Summary for October 16, 2017 Units:  English    Metric   Both
« Previous Day
Next Day »
Daily Weekly Monthly Yearly Custom
  High: Low: Average:
Temperature: 50.9 °F 36.4 °F 45.4 °F
Dew Point: 41.5 °F 32.7 °F 36.4 °F
Humidity: 87% 56% 71%
Wind Speed: 12.0mph 0.0mph 2.2mph
Wind Gust: 17.0mph - -
Wind- - NW
Pressure: 30.29 in 29.98 in -
Precipitation: 0.00 in    
Historical Graphs
 
 
Tabular Data for October 16, 2017
Time Temperature Dew Point Pressure Wind Wind Speed Wind Gust Humidity Rainfall Rate (Hourly)
00:04 50.9 °F 41.5 °F 29.98 in NNW 12.0 mph 17.0 mph 70% 0.00 in
00:09 50.8 °F 41.4 °F 29.98 in NW 5.0 mph 16.0 mph 70% 0.00 in
00:14 50.7 °F 41.3 °F 29.99 in NW 6.0 mph 17.0 mph 70% 0.00 in
00:19 50.6 °F 41.2 °F 29.99 in NW 5.0 mph 11.0 mph 70% 0.00 in
00:24 50.4 °F 41.0 °F 29.99 in NW 4.0 mph 14.0 mph 70% 0.00 in
00:29 50.3 °F 41.3 °F 30.00 in NNW 4.0 mph 14.0 mph 71% 0.00 in
00:34 50.1 °F 41.1 °F 30.00 in NNW 4.0 mph 13.0 mph 71% 0.00 in
00:39 49.8 °F 40.8 °F 30.00 in North 4.0 mph 13.0 mph 71% 0.00 in
00:49 49.4 °F 40.7 °F 30.01 in NW 4.0 mph 15.0 mph 72% 0.00 in
00:54 49.2 °F 40.6 °F 30.00 in WNW 4.0 mph 16.0 mph 72% 0.00 in
00:59 49.1 °F 40.1 °F 30.00 in NNW 6.0 mph 12.0 mph 71% 0.00 in
01:04 49.1 °F 40.5 °F 30.01 in WNW 1.0 mph 10.0 mph 72% 0.00 in
01:09 49.1 °F 40.1 °F 30.01 in NW 4.0 mph 14.0 mph 71% 0.00 in
01:14 49.0 °F 40.4 °F 30.02 in NNW 5.0 mph 16.0 mph 72% 0.00 in
01:19 48.8 °F 40.2 °F 30.02 in Calm   11.0 mph 72% 0.00 in
01:24 48.6 °F 40.0 °F 30.02 in NNW 4.0 mph 11.0 mph 72% 0.00 in
01:29 48.5 °F 39.9 °F 30.03 in NNW 4.0 mph 11.0 mph 72% 0.00 in
01:34 48.3 °F 39.7 °F 30.03 in NW 4.0 mph 9.0 mph 72% 0.00 in
01:39 48.2 °F 39.6 °F 30.03 in NNW 4.0 mph 12.0 mph 72% 0.00 in
01:44 48.0 °F 39.0 °F 30.04 in NNW 4.0 mph 15.0 mph 71% 0.00 in
01:49 47.9 °F 38.9 °F 30.04 in NNW 4.0 mph 15.0 mph 71% 0.00 in
01:54 47.8 °F 39.2 °F 30.04 in NNW 3.0 mph 11.0 mph 72% 0.00 in
01:59 47.6 °F 39.0 °F 30.04 in NNW 3.0 mph 9.0 mph 72% 0.00 in
02:04 47.4 °F 38.8 °F 30.04 in North 6.0 mph 9.0 mph 72% 0.00 in
02:09 47.4 °F 39.2 °F 30.04 in NNW 3.0 mph 9.0 mph 73% 0.00 in
02:14 47.3 °F 38.7 °F 30.05 in North 4.0 mph 11.0 mph 72% 0.00 in
02:19 47.2 °F 38.6 °F 30.05 in North 4.0 mph 11.0 mph 72% 0.00 in
02:24 47.2 °F 39.0 °F 30.05 in Calm   6.0 mph 73% 0.00 in
02:29 47.2 °F 39.0 °F 30.05 in Calm   5.0 mph 73% 0.00 in
02:34 47.2 °F 39.0 °F 30.05 in NNE 4.0 mph 7.0 mph 73% 0.00 in
02:39 47.1 °F 38.9 °F 30.05 in NNW 2.0 mph 7.0 mph 73% 0.00 in
02:44 47.1 °F 38.9 °F 30.05 in NNW 2.0 mph 9.0 mph 73% 0.00 in
02:49 47.0 °F 38.8 °F 30.06 in NNW 2.0 mph 9.0 mph 73% 0.00 in
02:54 47.0 °F 38.4 °F 30.06 in NNW 4.0 mph 9.0 mph 72% 0.00 in
02:59 46.9 °F 38.3 °F 30.06 in North 3.0 mph 10.0 mph 72% 0.00 in
03:04 46.9 °F 38.3 °F 30.06 in NW 2.0 mph 9.0 mph 72% 0.00 in
03:09 46.8 °F 38.2 °F 30.06 in NNW 3.0 mph 9.0 mph 72% 0.00 in
03:14 46.7 °F 38.1 °F 30.06 in NNW 3.0 mph 6.0 mph 72% 0.00 in
03:19 46.7 °F 38.5 °F 30.06 in NNW 3.0 mph 10.0 mph 73% 0.00 in
03:24 46.7 °F 38.5 °F 30.06 in NNW 3.0 mph 10.0 mph 73% 0.00 in
03:29 46.7 °F 38.5 °F 30.06 in North 4.0 mph 13.0 mph 73% 0.00 in
03:34 46.5 °F 38.3 °F 30.06 in North 1.0 mph 9.0 mph 73% 0.00 in
03:39 46.5 °F 38.3 °F 30.07 in NNW 3.0 mph 6.0 mph 73% 0.00 in
03:44 46.4 °F 38.2 °F 30.07 in NNW 2.0 mph 9.0 mph 73% 0.00 in
03:49 46.4 °F 38.2 °F 30.07 in NNW 2.0 mph 9.0 mph 73% 0.00 in
03:54 46.3 °F 38.1 °F 30.07 in NNW 2.0 mph 7.0 mph 73% 0.00 in
03:59 46.2 °F 38.0 °F 30.08 in North 2.0 mph 7.0 mph 73% 0.00 in
04:04 46.2 °F 38.0 °F 30.08 in NNW 1.0 mph 5.0 mph 73% 0.00 in
04:09 46.1 °F 37.9 °F 30.08 in Calm   7.0 mph 73% 0.00 in
04:14 46.1 °F 37.9 °F 30.08 in NNW 3.0 mph 8.0 mph 73% 0.00 in
04:19 46.1 °F 37.9 °F 30.08 in NNW 3.0 mph 8.0 mph 73% 0.00 in
04:24 46.0 °F 37.5 °F 30.08 in NNW 5.0 mph 6.0 mph 72% 0.00 in
04:29 46.0 °F 37.5 °F 30.08 in NNW 3.0 mph 7.0 mph 72% 0.00 in
04:34 46.0 °F 37.5 °F 30.09 in NW 2.0 mph 4.0 mph 72% 0.00 in
04:39 46.0 °F 37.5 °F 30.09 in NNW 2.0 mph 8.0 mph 72% 0.00 in
04:44 46.0 °F 37.8 °F 30.09 in NNW 3.0 mph 8.0 mph 73% 0.00 in
04:49 45.9 °F 37.7 °F 30.09 in NNW 2.0 mph 5.0 mph 73% 0.00 in
04:54 45.8 °F 37.3 °F 30.09 in NNW 3.0 mph 7.0 mph 72% 0.00 in
04:59 45.9 °F 37.4 °F 30.09 in NNW 3.0 mph 7.0 mph 72% 0.00 in
05:04 45.9 °F 37.7 °F 30.10 in NNW 2.0 mph 4.0 mph 73% 0.00 in
05:09 45.9 °F 37.7 °F 30.10 in WNW 3.0 mph 5.0 mph 73% 0.00 in
05:14 45.9 °F 37.7 °F 30.10 in Calm   5.0 mph 73% 0.00 in
05:19 45.9 °F 37.7 °F 30.10 in Calm   3.0 mph 73% 0.00 in
05:24 45.9 °F 37.7 °F 30.10 in NNW 1.0 mph 3.0 mph 73% 0.00 in
05:29 45.9 °F 37.7 °F 30.11 in North 1.0 mph 3.0 mph 73% 0.00 in
05:34 45.9 °F 37.7 °F 30.11 in North 2.0 mph 5.0 mph 73% 0.00 in
05:39 45.9 °F 37.7 °F 30.11 in NNW 4.0 mph 5.0 mph 73% 0.00 in
05:44 45.9 °F 37.7 °F 30.11 in Calm   5.0 mph 73% 0.00 in
05:49 45.9 °F 37.7 °F 30.11 in NNW 1.0 mph 5.0 mph 73% 0.00 in
05:54 45.9 °F 37.7 °F 30.11 in NNW 1.0 mph 5.0 mph 73% 0.00 in
05:59 45.9 °F 38.1 °F 30.11 in NNW 1.0 mph 4.0 mph 74% 0.00 in
06:04 45.9 °F 38.1 °F 30.11 in Calm   4.0 mph 74% 0.00 in
06:09 45.9 °F 37.7 °F 30.12 in Calm   3.0 mph 73% 0.00 in
06:14 45.8 °F 38.0 °F 30.12 in Calm   3.0 mph 74% 0.00 in
06:19 45.6 °F 37.8 °F 30.12 in NW 1.0 mph 5.0 mph 74% 0.00 in
06:24 45.5 °F 37.7 °F 30.12 in Calm   1.0 mph 74% 0.00 in
06:29 45.4 °F 37.6 °F 30.12 in Calm   1.0 mph 74% 0.00 in
06:34 45.4 °F 37.6 °F 30.12 in West 1.0 mph 3.0 mph 74% 0.00 in
06:39 45.2 °F 37.7 °F 30.12 in Calm   1.0 mph 75% 0.00 in
06:44 45.2 °F 37.7 °F 30.12 in WNW 1.0 mph 3.0 mph 75% 0.00 in
06:49 45.1 °F 37.6 °F 30.13 in NNW 2.0 mph 5.0 mph 75% 0.00 in
06:54 45.0 °F 37.6 °F 30.13 in NNW 2.0 mph 5.0 mph 75% 0.00 in
06:59 45.0 °F 37.6 °F 30.13 in NNW 1.0 mph 4.0 mph 75% 0.00 in
07:04 44.9 °F 37.8 °F 30.13 in Calm   1.0 mph 76% 0.00 in
07:09 44.9 °F 37.8 °F 30.13 in Calm     76% 0.00 in
07:14 44.9 °F 37.8 °F 30.13 in WNW 2.0 mph 3.0 mph 76% 0.00 in
07:19 44.8 °F 37.4 °F 30.13 in Calm   2.0 mph 75% 0.00 in
07:24 44.7 °F 37.6 °F 30.13 in Calm   2.0 mph 76% 0.00 in
07:29 44.4 °F 37.3 °F 30.14 in Calm     76% 0.00 in
07:34 44.3 °F 37.2 °F 30.14 in Calm   3.0 mph 76% 0.00 in
07:39 44.2 °F 37.4 °F 30.14 in Calm   1.0 mph 77% 0.00 in
07:44 44.2 °F 37.4 °F 30.14 in Calm   3.0 mph 77% 0.00 in
07:49 44.2 °F 37.4 °F 30.14 in Calm   2.0 mph 77% 0.00 in
07:54 44.2 °F 37.4 °F 30.14 in NW 1.0 mph 6.0 mph 77% 0.00 in
07:59 44.1 °F 37.3 °F 30.15 in NW 1.0 mph 6.0 mph 77% 0.00 in
08:04 44.0 °F 37.3 °F 30.15 in Calm   2.0 mph 77% 0.00 in
08:09 43.9 °F 37.2 °F 30.15 in Calm   2.0 mph 77% 0.00 in
08:14 43.8 °F 37.1 °F 30.15 in NNE 2.0 mph 5.0 mph 77% 0.00 in
08:19 43.8 °F 37.1 °F 30.15 in NW 2.0 mph 6.0 mph 77% 0.00 in
08:24 44.1 °F 37.3 °F 30.16 in NW 2.0 mph 5.0 mph 77% 0.00 in
08:29 44.6 °F 37.5 °F 30.16 in NNW 1.0 mph 5.0 mph 76% 0.00 in
08:34 44.9 °F 37.5 °F 30.16 in Calm   6.0 mph 75% 0.00 in
08:39 45.1 °F 37.3 °F 30.16 in Calm   5.0 mph 74% 0.00 in
08:44 45.0 °F 37.2 °F 30.16 in WNW 2.0 mph 5.0 mph 74% 0.00 in
08:49 44.9 °F 37.1 °F 30.16 in NNW 3.0 mph 8.0 mph 74% 0.00 in
08:54 45.4 °F 37.6 °F 30.17 in NNW 4.0 mph 7.0 mph 74% 0.00 in
08:59 46.3 °F 38.1 °F 30.17 in NNW 2.0 mph 7.0 mph 73% 0.00 in
09:04 46.4 °F 37.9 °F 30.17 in NNW 2.0 mph 7.0 mph 72% 0.00 in
09:09 46.3 °F 37.8 °F 30.17 in NNW 2.0 mph 7.0 mph 72% 0.00 in
09:14 46.3 °F 37.8 °F 30.17 in NNW 2.0 mph 7.0 mph 72% 0.00 in
09:19 46.4 °F 38.2 °F 30.17 in Calm   5.0 mph 73% 0.00 in
09:24 47.0 °F 38.4 °F 30.18 in NW 1.0 mph 4.0 mph 72% 0.00 in
09:29 47.1 °F 38.5 °F 30.18 in West 4.0 mph 4.0 mph 72% 0.00 in
09:34 46.9 °F 38.3 °F 30.18 in WNW 1.0 mph 6.0 mph 72% 0.00 in
09:39 46.8 °F 38.6 °F 30.18 in NNW 2.0 mph 4.0 mph 73% 0.00 in
09:44 46.7 °F 38.5 °F 30.18 in North 2.0 mph 5.0 mph 73% 0.00 in
09:49 46.3 °F 38.1 °F 30.18 in WNW 4.0 mph 8.0 mph 73% 0.00 in
09:54 46.3 °F 38.1 °F 30.19 in NW 3.0 mph 8.0 mph 73% 0.00 in
09:59 46.2 °F 37.7 °F 30.19 in NNW 3.0 mph 8.0 mph 72% 0.00 in
10:04 46.3 °F 38.1 °F 30.19 in NNW 3.0 mph 8.0 mph 73% 0.00 in
10:09 46.5 °F 38.3 °F 30.19 in NNW 1.0 mph 5.0 mph 73% 0.00 in
10:14 46.8 °F 38.2 °F 30.19 in NNW 2.0 mph 5.0 mph 72% 0.00 in
10:19 48.2 °F 38.9 °F 30.19 in North 6.0 mph 8.0 mph 70% 0.00 in
10:24 47.9 °F 38.2 °F 30.19 in West 1.0 mph 9.0 mph 69% 0.00 in
10:29 47.9 °F 38.6 °F 30.19 in WNW 4.0 mph 10.0 mph 70% 0.00 in
10:34 47.4 °F 38.1 °F 30.19 in NW 3.0 mph 10.0 mph 70% 0.00 in
10:39 46.8 °F 37.9 °F 30.19 in NW 3.0 mph 9.0 mph 71% 0.00 in
10:44 46.8 °F 38.2 °F 30.19 in NW 3.0 mph 9.0 mph 72% 0.00 in
10:49 47.4 °F 38.5 °F 30.19 in West 3.0 mph 7.0 mph 71% 0.00 in
10:54 47.8 °F 38.8 °F 30.19 in NW 1.0 mph 5.0 mph 71% 0.00 in
10:59 47.3 °F 38.0 °F 30.20 in NW 3.0 mph 6.0 mph 70% 0.00 in
11:04 46.9 °F 37.6 °F 30.20 in NW 3.0 mph 8.0 mph 70% 0.00 in
11:09 46.6 °F 37.7 °F 30.20 in NNW 2.0 mph 6.0 mph 71% 0.00 in
11:14 47.3 °F 38.4 °F 30.20 in Calm   6.0 mph 71% 0.00 in
11:19 47.6 °F 37.9 °F 30.20 in NNW 2.0 mph 6.0 mph 69% 0.00 in
11:24 47.0 °F 37.4 °F 30.20 in North 5.0 mph 8.0 mph 69% 0.00 in
11:29 46.4 °F 37.5 °F 30.21 in NNW 2.0 mph 11.0 mph 71% 0.00 in
11:34 46.3 °F 37.8 °F 30.21 in NNW 3.0 mph 11.0 mph 72% 0.00 in
11:39 46.6 °F 38.1 °F 30.21 in NNW 3.0 mph 7.0 mph 72% 0.00 in
11:44 47.5 °F 38.2 °F 30.21 in NNW 3.0 mph 8.0 mph 70% 0.00 in
11:49 47.5 °F 37.8 °F 30.21 in NNW 3.0 mph 8.0 mph 69% 0.00 in
11:54 47.3 °F 38.0 °F 30.21 in NW 2.0 mph 6.0 mph 70% 0.00 in
11:59 47.0 °F 37.4 °F 30.21 in NNW 4.0 mph 5.0 mph 69% 0.00 in
12:04 47.0 °F 37.4 °F 30.21 in WNW 5.0 mph 6.0 mph 69% 0.00 in
12:09 47.6 °F 37.9 °F 30.21 in NW 1.0 mph 7.0 mph 69% 0.00 in
12:14 48.0 °F 37.2 °F 30.21 in WNW 2.0 mph 8.0 mph 66% 0.00 in
12:19 49.0 °F 37.3 °F 30.21 in West 10.0 mph 13.0 mph 64% 0.00 in
12:24 48.3 °F 37.1 °F 30.22 in NNW 5.0 mph 15.0 mph 65% 0.00 in
12:29 47.7 °F 36.1 °F 30.22 in North 4.0 mph 11.0 mph 64% 0.00 in
12:34 47.4 °F 36.2 °F 30.22 in NW 4.0 mph 11.0 mph 65% 0.00 in
12:39 47.5 °F 37.1 °F 30.22 in NW 3.0 mph 7.0 mph 67% 0.00 in
12:44 47.7 °F 36.9 °F 30.22 in West 9.0 mph 13.0 mph 66% 0.00 in
12:49 47.8 °F 36.6 °F 30.22 in WNW 6.0 mph 13.0 mph 65% 0.00 in
12:54 47.9 °F 35.9 °F 30.22 in NNW 4.0 mph 11.0 mph 63% 0.00 in
12:59 47.6 °F 36.4 °F 30.22 in WNW 6.0 mph 11.0 mph 65% 0.00 in
13:04 48.8 °F 36.8 °F 30.22 in NW 5.0 mph 11.0 mph 63% 0.00 in
13:09 49.0 °F 36.5 °F 30.21 in WNW 4.0 mph 7.0 mph 62% 0.00 in
13:14 47.9 °F 35.9 °F 30.21 in NW 2.0 mph 8.0 mph 63% 0.00 in
13:19 47.2 °F 36.0 °F 30.21 in WNW 5.0 mph 9.0 mph 65% 0.00 in
13:24 47.0 °F 35.8 °F 30.22 in North 3.0 mph 13.0 mph 65% 0.00 in
13:29 47.3 °F 36.1 °F 30.22 in WNW 6.0 mph 10.0 mph 65% 0.00 in
13:34 47.4 °F 35.8 °F 30.22 in NW 5.0 mph 13.0 mph 64% 0.00 in
13:39 48.1 °F 36.1 °F 30.21 in NW 6.0 mph 12.0 mph 63% 0.00 in
13:44 48.5 °F 36.1 °F 30.21 in NW 6.0 mph 12.0 mph 62% 0.00 in
13:49 48.7 °F 36.7 °F 30.21 in WNW 5.0 mph 13.0 mph 63% 0.00 in
13:54 50.1 °F 37.6 °F 30.21 in NW 5.0 mph 9.0 mph 62% 0.00 in
13:59 49.1 °F 35.8 °F 30.21 in West 3.0 mph 11.0 mph 60% 0.00 in
14:04 49.1 °F 36.2 °F 30.21 in NNW 6.0 mph 11.0 mph 61% 0.00 in
14:09 48.8 °F 35.9 °F 30.21 in WNW 5.0 mph 11.0 mph 61% 0.00 in
14:14 48.5 °F 36.1 °F 30.21 in SW 6.0 mph 12.0 mph 62% 0.00 in
14:19 48.0 °F 35.6 °F 30.22 in NW 9.0 mph 10.0 mph 62% 0.00 in
14:24 47.4 °F 34.6 °F 30.22 in NW 10.0 mph 10.0 mph 61% 0.00 in
14:29 48.3 °F 35.9 °F 30.21 in WNW 7.0 mph 10.0 mph 62% 0.00 in
14:34 49.6 °F 36.3 °F 30.21 in West 9.0 mph 12.0 mph 60% 0.00 in
14:39 48.8 °F 35.1 °F 30.21 in WNW 7.0 mph 13.0 mph 59% 0.00 in
14:44 48.1 °F 34.9 °F 30.22 in WNW 6.0 mph 13.0 mph 60% 0.00 in
14:49 49.0 °F 36.5 °F 30.22 in WNW 5.0 mph 9.0 mph 62% 0.00 in
14:54 50.3 °F 36.5 °F 30.22 in WNW 5.0 mph 10.0 mph 59% 0.00 in
14:59 49.1 °F 34.1 °F 30.22 in NW 5.0 mph 10.0 mph 56% 0.00 in
15:04 47.7 °F 33.6 °F 30.22 in NW 8.0 mph 10.0 mph 58% 0.00 in
15:09 47.4 °F 34.2 °F 30.22 in North 3.0 mph 12.0 mph 60% 0.00 in
15:14 49.7 °F 35.5 °F 30.22 in WNW 2.0 mph 10.0 mph 58% 0.00 in
15:19 50.6 °F 35.5 °F 30.22 in NW 6.0 mph 10.0 mph 56% 0.00 in
15:24 49.9 °F 34.8 °F 30.23 in West 4.0 mph 10.0 mph 56% 0.00 in
15:29 49.0 °F 34.9 °F 30.23 in NNW 2.0 mph 10.0 mph 58% 0.00 in
15:34 48.1 °F 34.0 °F 30.23 in NW 2.0 mph 7.0 mph 58% 0.00 in
15:39 47.2 °F 34.0 °F 30.23 in North 4.0 mph 9.0 mph 60% 0.00 in
15:44 47.1 °F 34.3 °F 30.23 in NW 3.0 mph 9.0 mph 61% 0.00 in
15:49 47.8 °F 35.0 °F 30.23 in NW 3.0 mph 7.0 mph 61% 0.00 in
15:54 48.3 °F 34.6 °F 30.23 in NW 3.0 mph 8.0 mph 59% 0.00 in
15:59 49.1 °F 34.9 °F 30.23 in NW 3.0 mph 10.0 mph 58% 0.00 in
16:04 50.0 °F 36.2 °F 30.23 in NNW 3.0 mph 9.0 mph 59% 0.00 in
16:09 49.6 °F 35.0 °F 30.23 in West 4.0 mph 10.0 mph 57% 0.00 in
16:14 49.2 °F 34.2 °F 30.23 in NNE 5.0 mph 12.0 mph 56% 0.00 in
16:19 49.3 °F 34.3 °F 30.23 in NW 4.0 mph 12.0 mph 56% 0.00 in
16:24 49.2 °F 34.6 °F 30.23 in WNW 2.0 mph 9.0 mph 57% 0.00 in
16:29 49.6 °F 34.5 °F 30.23 in West 4.0 mph 7.0 mph 56% 0.00 in
16:34 49.3 °F 34.3 °F 30.23 in WNW 2.0 mph 6.0 mph 56% 0.00 in
16:39 49.2 °F 34.6 °F 30.23 in West 2.0 mph 10.0 mph 57% 0.00 in
16:44 49.6 °F 35.4 °F 30.24 in West 5.0 mph 7.0 mph 58% 0.00 in
16:49 49.3 °F 34.7 °F 30.24 in WNW 4.0 mph 9.0 mph 57% 0.00 in
16:54 48.7 °F 34.1 °F 30.24 in WNW 4.0 mph 9.0 mph 57% 0.00 in
16:59 47.9 °F 34.3 °F 30.24 in NW 3.0 mph 7.0 mph 59% 0.00 in
17:04 47.8 °F 34.2 °F 30.24 in NNW 1.0 mph 4.0 mph 59% 0.00 in
17:09 48.3 °F 35.5 °F 30.24 in West 5.0 mph 6.0 mph 61% 0.00 in
17:14 48.6 °F 34.9 °F 30.25 in NNW 2.0 mph 6.0 mph 59% 0.00 in
17:19 48.7 °F 34.6 °F 30.24 in WNW 2.0 mph 7.0 mph 58% 0.00 in
17:24 48.4 °F 35.1 °F 30.24 in NW 3.0 mph 7.0 mph 60% 0.00 in
17:29 48.1 °F 34.0 °F 30.25 in NW 2.0 mph 5.0 mph 58% 0.00 in
17:34 47.9 °F 34.3 °F 30.24 in NW 2.0 mph 5.0 mph 59% 0.00 in
17:39 47.7 °F 34.5 °F 30.25 in NW 1.0 mph 6.0 mph 60% 0.00 in
17:44 47.6 °F 34.4 °F 30.24 in Calm   3.0 mph 60% 0.00 in
17:49 47.4 °F 34.2 °F 30.24 in NNW 1.0 mph 3.0 mph 60% 0.00 in
17:54 47.3 °F 34.5 °F 30.25 in WNW 1.0 mph 5.0 mph 61% 0.00 in
17:59 47.2 °F 33.6 °F 30.25 in WNW 1.0 mph 5.0 mph 59% 0.00 in
18:04 47.0 °F 33.4 °F 30.25 in NW 2.0 mph 5.0 mph 59% 0.00 in
18:09 46.9 °F 33.3 °F 30.25 in NNW 3.0 mph 4.0 mph 59% 0.00 in
18:14 46.7 °F 33.1 °F 30.25 in WNW 1.0 mph 5.0 mph 59% 0.00 in
18:19 46.5 °F 33.4 °F 30.25 in NNW 1.0 mph 5.0 mph 60% 0.00 in
18:24 46.1 °F 33.8 °F 30.25 in NNW 1.0 mph 5.0 mph 62% 0.00 in
18:29 45.7 °F 33.8 °F 30.26 in NW 1.0 mph 3.0 mph 63% 0.00 in
18:34 45.3 °F 33.8 °F 30.26 in Calm   2.0 mph 64% 0.00 in
18:39 44.9 °F 33.8 °F 30.26 in Calm     65% 0.00 in
18:44 44.7 °F 33.6 °F 30.26 in Calm     65% 0.00 in
18:49 44.4 °F 33.7 °F 30.26 in Calm     66% 0.00 in
18:54 44.0 °F 33.7 °F 30.26 in Calm     67% 0.00 in
18:59 43.8 °F 33.6 °F 30.26 in Calm     67% 0.00 in
19:04 43.4 °F 33.5 °F 30.26 in Calm     68% 0.00 in
19:09 43.0 °F 33.5 °F 30.26 in Calm     69% 0.00 in
19:14 42.7 °F 33.2 °F 30.26 in Calm     69% 0.00 in
19:19 42.3 °F 33.6 °F 30.27 in Calm     71% 0.00 in
19:24 41.8 °F 33.4 °F 30.27 in Calm     72% 0.00 in
19:29 41.6 °F 33.6 °F 30.27 in Calm     73% 0.00 in
19:34 41.4 °F 33.7 °F 30.27 in Calm     74% 0.00 in
19:39 41.4 °F 33.7 °F 30.27 in Calm     74% 0.00 in
19:44 41.1 °F 33.8 °F 30.27 in Calm     75% 0.00 in
19:49 40.8 °F 33.8 °F 30.27 in Calm     76% 0.00 in
19:54 40.7 °F 33.7 °F 30.27 in Calm     76% 0.00 in
19:59 40.6 °F 33.6 °F 30.27 in Calm     76% 0.00 in
20:04 40.4 °F 33.4 °F 30.27 in Calm     76% 0.00 in
20:09 40.2 °F 33.2 °F 30.27 in Calm     76% 0.00 in
20:14 40.2 °F 33.6 °F 30.27 in Calm     77% 0.00 in
20:19 40.1 °F 33.5 °F 30.27 in Calm     77% 0.00 in
20:24 40.0 °F 33.4 °F 30.27 in Calm     77% 0.00 in
20:29 39.8 °F 33.5 °F 30.27 in Calm     78% 0.00 in
20:34 39.6 °F 33.6 °F 30.27 in Calm     79% 0.00 in
20:39 39.2 °F 33.5 °F 30.27 in Calm     80% 0.00 in
20:44 39.1 °F 33.8 °F 30.27 in Calm     81% 0.00 in
20:49 38.9 °F 33.6 °F 30.27 in Calm     81% 0.00 in
20:54 38.7 °F 33.1 °F 30.27 in Calm     80% 0.00 in
20:59 38.6 °F 33.3 °F 30.28 in Calm     81% 0.00 in
21:04 38.6 °F 33.6 °F 30.27 in Calm     82% 0.00 in
21:09 38.6 °F 33.6 °F 30.28 in Calm     82% 0.00 in
21:14 38.5 °F 33.5 °F 30.28 in Calm     82% 0.00 in
21:19 38.4 °F 33.4 °F 30.28 in Calm     82% 0.00 in
21:24 38.2 °F 33.2 °F 30.28 in Calm     82% 0.00 in
21:29 38.1 °F 33.4 °F 30.28 in Calm     83% 0.00 in
21:34 38.1 °F 33.4 °F 30.28 in Calm     83% 0.00 in
21:39 38.2 °F 33.5 °F 30.29 in Calm     83% 0.00 in
21:44 38.2 °F 33.5 °F 30.29 in Calm     83% 0.00 in
21:49 38.1 °F 33.7 °F 30.29 in Calm     84% 0.00 in
21:54 38.3 °F 33.9 °F 30.29 in Calm     84% 0.00 in
21:59 38.2 °F 33.8 °F 30.29 in Calm     84% 0.00 in
22:04 37.9 °F 33.5 °F 30.28 in Calm     84% 0.00 in
22:09 37.8 °F 33.4 °F 30.28 in Calm     84% 0.00 in
22:14 37.6 °F 33.2 °F 30.28 in Calm     84% 0.00 in
22:19 37.9 °F 33.5 °F 30.28 in Calm     84% 0.00 in
22:24 37.8 °F 33.4 °F 30.28 in Calm     84% 0.00 in
22:29 37.8 °F 33.4 °F 30.28 in Calm     84% 0.00 in
22:34 37.6 °F 33.5 °F 30.28 in Calm     85% 0.00 in
22:39 37.5 °F 33.4 °F 30.28 in Calm     85% 0.00 in
22:44 37.3 °F 33.2 °F 30.29 in Calm     85% 0.00 in
22:49 37.3 °F 33.2 °F 30.29 in Calm     85% 0.00 in
22:54 37.2 °F 33.1 °F 30.29 in Calm     85% 0.00 in
22:59 37.0 °F 32.9 °F 30.28 in Calm     85% 0.00 in
23:04 36.9 °F 32.8 °F 30.28 in Calm     85% 0.00 in
23:09 36.6 °F 32.8 °F 30.29 in Calm     86% 0.00 in
23:19 36.5 °F 32.7 °F 30.29 in Calm     86% 0.00 in
23:24 36.4 °F 32.9 °F 30.29 in Calm     87% 0.00 in
23:29 36.4 °F 32.9 °F 30.29 in Calm     87% 0.00 in
23:34 36.5 °F 33.0 °F 30.29 in Calm     87% 0.00 in
23:39 36.7 °F 33.2 °F 30.29 in Calm     87% 0.00 in
23:44 36.8 °F 33.3 °F 30.29 in Calm     87% 0.00 in
23:49 36.8 °F 33.3 °F 30.28 in Calm     87% 0.00 in
23:54 36.7 °F 32.9 °F 30.28 in Calm     86% 0.00 in
23:59 36.6 °F 33.1 °F 30.29 in Calm     87% 0.00 in
Buffalo, New York, USA
Compliments of Weather Underground - 2.5 mb